[[{"header":{"parameterUnit":"m.s-1","parameterCategory":1,"la1":30.2991,"la2":30.254,"lo1":-89.0895,"lo2":-89.0444,"dy":0.0017,"dx":0.0017,"nx":28,"ny":28,"refTime":"2024-08-31T03:00:00:Z","depth":0,"parameterNumber":2,"parameterNumberName":"U-component_of_WINDS"},"data":[0,0,0,0,0,0,0,0,0,0,0,0,0,0,0,0,0,0,0,0,0,0,0,0,0,0,0,0,0,0,0,0,0,0,0,0,0,0,0,0,0,0,0,0,0,0,0,0,0,0,0,0,0,0,0,0,0,0,-4.7362,-4.7364,0,-4.7523,-4.7525,-4.7527,-4.7476,-4.7473,-4.7469,-4.7466,-4.7633,-4.7641,-4.7648,0,0,0,0,0,0,0,0,0,0,0,0,0,-4.7012,-4.7019,-4.7362,-4.7364,-4.7366,-4.7523,-4.7525,-4.7528,-4.7477,-4.7473,-4.7469,-4.7465,-4.7631,-4.764,-4.7649,0,0,0,0,0,0,0,0,0,0,0,0,0,-4.7168,-4.7021,-4.7362,-4.736,-4.7361,-4.7523,-4.7525,-4.7528,-4.7478,-4.7473,-4.7467,-4.7463,-4.7628,-4.7639,-4.765,-4.7824,0,0,-4.7685,-4.769,0,0,0,0,0,0,0,0,-4.7159,-4.7181,-4.7358,-4.736,-4.7362,-4.7474,-4.7463,-4.7628,-4.7479,-4.7434,-4.7466,-4.746,-4.7585,-4.7599,-4.7641,-4.7832,-4.7839,-4.7686,-4.7693,-4.7698,-4.7702,0,0,0,0,0,0,0,-4.7148,-4.7173,-4.7426,-4.7361,-4.7363,-4.7351,-4.7368,-4.7494,-4.7536,-4.7437,-4.7434,-4.7453,-4.7585,-4.763,-4.7645,-4.7842,-4.7686,-4.7696,-4.7703,-4.7708,-4.8183,-4.8188,0,0,0,0,0,0,-4.7136,-4.7165,-4.7421,-4.7431,-4.7246,-4.7362,-4.738,-4.7444,-4.7535,-4.7543,-4.7458,-4.7451,-4.7613,-4.7631,-4.765,-4.7859,-4.7698,-4.7709,-4.7716,-4.8177,-4.8184,-4.8191,0,0,0,0,0,0,-4.7129,-4.7159,-4.7414,-4.7297,-4.7328,-4.7373,-4.7445,-4.7449,-4.7495,-4.755,-4.7558,-4.7496,-4.761,-4.7634,-4.7781,-4.7864,-4.7714,-4.7725,-4.8171,-4.8179,-4.8187,-4.8279,0,0,0,0,0,0,-4.7119,-4.7157,-4.7223,-4.7299,-4.7335,-4.7542,-4.745,-4.7456,-4.7514,-4.7506,-4.7588,-4.7597,-4.7608,-4.7764,-4.7793,-4.7878,-4.7734,-4.8163,-4.8175,-4.8185,-4.8269,-4.829,-4.8308,0,0,0,0,0,-4.7106,-4.7243,-4.7227,-4.7258,-4.7418,-4.7547,-4.7568,-4.7577,-4.7521,-4.7588,-4.7624,-4.7594,-4.7851,-4.778,-4.7811,-4.7901,-4.8158,-4.8171,-4.8184,-4.826,-4.8286,-4.8307,0,0,0,0,0,0,-4.7176,-4.7253,-4.7235,-4.74,-4.7468,-4.7538,-4.7623,-4.7604,-4.7688,-4.7678,-4.7686,-4.7705,-4.7856,-4.7893,-4.7812,-4.8074,-4.7996,-4.8016,-4.8044,-4.8068,-4.8087,-4.8075,-4.7743,0,0,0,0,0,-4.7211,-4.7308,-4.737,-4.751,-4.7544,-4.7578,-4.7634,-4.7636,-4.7706,-4.7734,-4.778,-4.785,-4.7946,-4.8009,-4.8101,-4.8274,-4.8291,-4.8352,-4.8371,-4.8387,-4.8404,-4.8497,-4.8525,-4.8233,-4.8233,-4.8233,0,0,-4.7283,-4.7337,-4.7398,-4.7525,-4.7577,-4.7678,-4.7602,-4.7713,-4.7788,-4.7751,-4.7892,-4.7929,-4.8007,-4.8168,-4.8241,-4.8204,-4.8488,-4.8403,-4.8415,-4.8424,-4.8513,-4.8541,-4.8566,-4.8242,-4.824,-4.8239,0,0,-4.7467,-4.7518,-4.7639,-4.7693,-4.7772,-4.7794,-4.7823,-4.7897,-4.792,-4.8062,-4.8036,-4.8126,-4.8292,-4.8348,-4.8399,-4.8604,-4.858,-4.8634,-4.8735,-4.8827,-4.885,-4.887,-4.8943,-4.8969,-4.8651,-4.8651,-4.8651,0,-4.7547,-4.7698,-4.7704,-4.7817,-4.7873,-4.7844,-4.7968,-4.802,-4.8126,-4.8166,-4.8122,-4.8329,-4.838,-4.8553,-4.8603,-4.8646,-4.8679,-4.8624,-4.8846,-4.8866,-4.8886,-4.8955,-4.8982,-4.8657,-4.8656,-4.8656,-4.8655,0,-4.7792,-4.7897,-4.7986,-4.8088,-4.8155,-4.8272,-4.8297,-4.8364,-4.836,-4.8386,-4.8531,-4.8591,-4.8694,-4.8735,-4.8732,-4.8908,-4.8883,-4.8843,-4.8765,-4.8919,-4.8984,-4.9011,-4.8666,-4.8664,-4.8662,-4.866,0,0,-4.8024,-4.8128,-4.816,-4.8206,-4.8292,-4.8374,-4.849,-4.859,-4.8647,-4.8722,-4.8819,-4.896,-4.8924,-4.8981,-4.8985,-4.9065,-4.9223,-4.9015,-4.9017,-4.9051,-4.942,-4.9449,-4.9479,-4.9208,-4.9213,-4.9217,-4.9413,0,-4.8214,-4.8418,-4.8427,-4.8612,-4.8709,-4.8683,-4.8785,-4.8849,-4.8876,-4.8963,-4.8994,-4.9094,-4.9038,-4.9073,-4.9151,-4.9187,-4.9297,-4.9173,-4.9298,-4.9303,-4.9279,-4.9513,-4.9544,-4.9727,-4.9439,-4.9443,-4.9446,0,-4.8463,-4.8544,-4.8739,-4.881,-4.8851,-4.8942,-4.9035,-4.9118,-4.919,-4.9205,-4.9269,-4.9261,-4.938,-4.9299,-4.9463,-4.9379,-4.9431,-4.9456,-4.9464,-4.9475,-4.9383,-4.9531,-4.9785,-4.9812,-4.9487,-4.9483,-4.948,0,-4.8611,-4.877,-4.8906,-4.8947,-4.9034,-4.9098,-4.9138,-4.9204,-4.9264,-4.9345,-4.9384,-4.9478,-4.953,-4.9603,-4.9621,-4.956,-4.9785,-4.9705,-4.98,-4.98,-4.9848,-4.9845,-5.0114,-4.9884,-4.9883,-4.9883,-4.9882,0,-4.8822,-4.8943,-4.8974,-4.9058,-4.9192,-4.9202,-4.9335,-4.937,-4.943,-4.952,-4.9504,-4.959,-4.9608,-4.9698,-4.9712,-4.9846,-4.987,-4.9885,-4.9887,-4.9886,-4.9884,-4.9919,-4.9907,-4.989,-4.9888,-4.9887,-4.9886,0,-4.9011,-4.9037,-4.9184,-4.9254,-4.9275,-4.937,-4.9431,-4.9512,-4.9537,-4.9653,-4.968,-4.9721,-4.9826,-4.985,-4.9975,-4.9985,-5.0143,-5.0134,-5.0119,-5.0118,-5.0211,-5.0202,-5.0512,-5.0553,-5.0296,-5.0298,-5.03,0,-4.9143,-4.9235,-4.9315,-4.9374,-4.9416,-4.9512,-4.9572,-4.9586,-4.965,-4.9739,-4.9809,-4.9912,-4.9994,-5.0162,-5.0203,-5.0299,-5.0291,-5.0393,-5.0305,-5.0301,-5.0292,-5.0286,-5.0295,-5.041,-5.0412,-5.0415,-5.0416,0,-4.9375,-4.9383,-4.9471,-4.9563,-4.9636,-4.9709,-4.9779,-4.9829,-4.9852,-4.9925,-5.0031,-5.0095,-5.0222,-5.0324,-5.042,-5.0461,-5.0443,-5.0444,-5.0471,-5.047,-5.0457,-5.0465,-5.0163,-5.0436,-5.0434,-5.0433,-5.0432,-5.0431,-4.9539,-4.9619,-4.9688,-4.9786,-4.984,-4.9906,-4.9985,-5.0021,-5.0109,-5.0213,-5.0216,-5.0332,-5.0401,-5.0528,-5.0575,-5.0665,-5.0634,-5.0673,-5.0683,-5.0692,-5.07,-5.0443,-5.0683,-5.0683,-5.0682,-5.0682,-5.0681,0,-4.977,-4.9813,-4.9903,-5.0001,-5.0078,-5.0054,-5.013,-5.0197,-5.0298,-5.0365,-5.0446,-5.0568,-5.0667,-5.0716,-5.0813,-5.0877,-5.0871,-5.0902,-5.0897,-5.0907,-5.0723,-5.069,-5.0905,-5.0905,-5.0905,-5.0905,-5.0905,-5.0905,-4.9899,-5.0033,-5.0049,-5.021,-5.0252,-5.0365,-5.041,-5.0471,-5.0524,-5.0661,-5.0742,-5.0773,-5.0833,-5.0935,-5.1024,-5.1036,-5.1072,-5.1107,-5.1115,-5.0943,-5.092,-5.0898,-5.0866,-5.1115,-5.1116,-5.1291,-5.1293,-5.1294]},{"header":{"parameterUnit":"m.s-1","parameterCategory":1,"la1":30.2991,"la2":30.254,"lo1":-89.0895,"lo2":-89.0444,"dy":0.0017,"dx":0.0017,"nx":28,"ny":28,"refTime":"2024-08-31T03:00:00:Z","depth":0,"parameterNumber":3,"parameterNumberName":"V-component_of_WINDS"},"data":[0,0,0,0,0,0,0,0,0,0,0,0,0,0,0,0,0,0,0,0,0,0,0,0,0,0,0,0,0,0,0,0,0,0,0,0,0,0,0,0,0,0,0,0,0,0,0,0,0,0,0,0,0,0,0,0,0,0,0.9988,0.9988,0,0.9974,0.9974,0.9974,0.9854,0.9851,0.9848,0.9846,0.9836,0.9838,0.9841,0,0,0,0,0,0,0,0,0,0,0,0,0,0.9916,0.9918,0.9988,0.9988,0.9988,0.9975,0.9974,0.9974,0.9855,0.9851,0.9848,0.9844,0.9835,0.9838,0.9841,0,0,0,0,0,0,0,0,0,0,0,0,0,0.993,0.9918,0.9988,0.9926,0.9921,0.9975,0.9974,0.9974,0.9856,0.9851,0.9847,0.9843,0.9834,0.9838,0.9841,0.9954,0,0,0.9853,0.9855,0,0,0,0,0,0,0,0,0.9929,0.9932,0.9936,0.9931,0.9925,0.9911,0.9945,0.9968,0.9857,0.9881,0.9846,0.984,0.9865,0.9866,0.9873,0.9954,0.9954,0.9853,0.9856,0.9857,0.9858,0,0,0,0,0,0,0,0.9928,0.9932,0.9983,0.9936,0.9929,0.9901,0.9898,0.9949,0.9898,0.9878,0.9869,0.9869,0.9861,0.987,0.9872,0.9953,0.9853,0.9857,0.9859,0.986,1.013,1.0134,0,0,0,0,0,0,0.9935,0.9932,0.9983,0.9982,0.9916,0.9906,0.9903,0.992,0.9897,0.9889,0.9873,0.9864,0.9866,0.9868,0.9871,1.0005,0.9857,0.9861,0.9863,1.0125,1.0131,1.0136,0,0,0,0,0,0,0.9934,0.9941,0.9984,0.9955,0.9958,0.9912,0.9933,0.9922,0.9931,0.9893,0.9884,0.9891,0.9862,0.9866,0.9935,1.0003,0.9862,0.9866,1.0119,1.0127,1.0133,1.0271,0,0,0,0,0,0,0.9932,0.9941,0.9982,0.9957,0.996,1.0047,0.9937,0.9925,0.9937,0.9925,0.9908,0.9901,0.9859,0.993,0.9939,1.0005,0.9869,1.0113,1.0122,1.0131,1.026,1.0282,1.0301,0,0,0,0,0,0.993,1.0022,0.9985,0.9992,1.001,1.0051,1.0053,1.0002,0.9943,0.9985,0.9962,0.9901,0.9993,0.9938,0.9947,1.0016,1.0108,1.012,1.013,1.0251,1.0278,1.03,0,0,0,0,0,0,1.0057,1.0017,0.9976,1.0061,1.006,1.003,1.0082,1.0031,1.0047,1.0035,0.9972,0.997,1.0049,1.0039,0.9978,1.0125,1.0041,1.0054,1.0129,1.0154,1.0174,1.0176,0.9872,0,0,0,0,0,1.0095,1.0129,1.0093,1.0172,1.0173,1.0128,1.0144,1.0104,1.0101,1.0101,1.0081,1.0082,1.0111,1.0132,1.0156,1.0257,1.0254,1.0309,1.0329,1.0346,1.0359,1.0415,1.044,1.0172,1.0172,1.0172,0,0,1.0174,1.0156,1.0182,1.0197,1.0191,1.0231,1.0128,1.0173,1.0203,1.0108,1.0172,1.0159,1.0155,1.0242,1.0279,1.0236,1.0432,1.036,1.0374,1.0378,1.0429,1.0455,1.0477,1.0179,1.0178,1.0177,0,0,1.0338,1.0326,1.0392,1.0389,1.0382,1.0351,1.0368,1.0346,1.0333,1.0396,1.0327,1.0361,1.0412,1.0413,1.0421,1.0588,1.0534,1.0597,1.0704,1.076,1.0781,1.0799,1.0862,1.0885,1.061,1.061,1.0611,0,1.0437,1.0491,1.0433,1.0483,1.0494,1.0408,1.0477,1.0476,1.0479,1.0489,1.044,1.0503,1.0495,1.0582,1.0623,1.0631,1.065,1.06,1.0782,1.08,1.0817,1.0876,1.0899,1.0618,1.0617,1.0616,1.0616,0,1.0615,1.0655,1.0709,1.0713,1.0729,1.0788,1.0741,1.0764,1.0724,1.07,1.0768,1.0754,1.0776,1.0793,1.0755,1.0877,1.085,1.0793,1.0707,1.0851,1.0906,1.0928,1.063,1.0627,1.0624,1.0622,0,0,1.0859,1.083,1.0852,1.0853,1.084,1.087,1.0927,1.0947,1.097,1.0975,1.1023,1.1069,1.1016,1.1025,1.0985,1.1034,1.1171,1.097,1.0969,1.1011,1.1308,1.1353,1.138,1.1134,1.1138,1.1142,1.1309,0,1.1019,1.1112,1.1062,1.1163,1.1201,1.1121,1.1171,1.117,1.1149,1.1179,1.1156,1.1191,1.1117,1.1122,1.1166,1.1145,1.123,1.1132,1.1181,1.1184,1.1187,1.1408,1.1455,1.1614,1.133,1.1334,1.1336,0,1.1217,1.1231,1.1336,1.1318,1.1331,1.1377,1.1393,1.1422,1.142,1.1401,1.1412,1.1362,1.1419,1.1333,1.1412,1.1346,1.1363,1.1356,1.1361,1.1366,1.127,1.1422,1.1663,1.1689,1.1368,1.1366,1.1364,0,1.1388,1.1432,1.1501,1.1505,1.1485,1.1519,1.1513,1.1506,1.1522,1.1537,1.1548,1.1569,1.1582,1.1601,1.1559,1.1499,1.1645,1.1554,1.1634,1.1636,1.167,1.1669,1.1921,1.1677,1.1677,1.1676,1.1676,0,1.1573,1.1641,1.1578,1.1621,1.1696,1.1638,1.1715,1.17,1.1695,1.1736,1.1668,1.1708,1.1649,1.1684,1.1652,1.1724,1.1729,1.1718,1.1709,1.1726,1.1728,1.1738,1.1727,1.1683,1.1681,1.168,1.1679,0,1.1777,1.1737,1.1807,1.1783,1.1779,1.1835,1.1815,1.1856,1.183,1.1882,1.1892,1.1853,1.189,1.185,1.1885,1.1863,1.1962,1.1935,1.1963,1.1956,1.2039,1.2033,1.2309,1.2343,1.2075,1.2078,1.208,0,1.1899,1.1949,1.1931,1.1952,1.195,1.1986,1.2002,1.1949,1.1969,1.1972,1.2013,1.2045,1.2067,1.2132,1.2108,1.2135,1.2111,1.2206,1.2115,1.2131,1.2116,1.2114,1.2121,1.2225,1.2228,1.2231,1.2233,0,1.212,1.2098,1.2124,1.2144,1.2166,1.2179,1.2187,1.2209,1.2154,1.2181,1.2219,1.2237,1.2273,1.2306,1.2327,1.2322,1.2271,1.2262,1.2282,1.23,1.2315,1.2311,1.2016,1.2256,1.2254,1.2252,1.2251,1.225,1.2288,1.233,1.2325,1.2357,1.2357,1.2367,1.2404,1.2384,1.2414,1.2439,1.2406,1.2453,1.2453,1.2475,1.2477,1.2515,1.2474,1.2503,1.2511,1.252,1.2534,1.2308,1.2518,1.2517,1.2516,1.2516,1.2515,0,1.2508,1.2501,1.253,1.2545,1.2571,1.2517,1.2525,1.2551,1.2593,1.2596,1.262,1.2665,1.2698,1.2678,1.2706,1.2741,1.2718,1.2751,1.2749,1.275,1.2566,1.2547,1.2769,1.2769,1.2769,1.2769,1.2769,1.2769,1.2626,1.2696,1.2674,1.2745,1.2737,1.2782,1.2791,1.2801,1.2804,1.2857,1.2884,1.287,1.2864,1.2893,1.2922,1.2915,1.293,1.2972,1.2957,1.2787,1.2762,1.2738,1.272,1.2975,1.2975,1.3138,1.3139,1.314]}]]